COSMOS 2527 (756) (43508 NORAD) Tracking and Keplerian Element Data

This shows tracking and keplerian element data for the satellite.

Feedback or suggestion? Click here.




ElementValue
Catalog43508
NameCOSMOS 2527 (756)
Epoch Orbit716
Epoch Day139.36201975
Epoch Year2019
RAAN160.4724
Inclination64.8341
Eccentricity0.0009096
Argument of Perigee243.8022
Mean Anonmoly37.161
Mean Motion2.13102703
Decay Rate6.6E-07
L11 43508U 18053A 19139.36201975 .00000066 00000-0 00000+0 0 9994
L22 43508 64.8341 160.4724 0009096 243.8022 37.1610 2.13102703 7168

Live tracking and technical data element details for COSMOS 2527 (756) (NORAD 43508). COSMOS 2527 (756) can be tracked NOW for your location showing map with azimuth and elevation plus other details from your city location.

Track the satellite on the map from your city or location and see movement details for azimuth, elevation, latitude, longitude, range, height, and movement on the map or in text.







IsCatalogInMostPopularTable: catalog: 43508, numindb: 135
Update: records affected: 1



GetName: 43508 COSMOS 2527 (756)

Hit Count: updated at: Tue, 21 May 2019 20:34:11 GMT